Follow iAlert.com on twitter @ialertcom
Search For Active Alerts in Your Area  
  Hi Guest:  [ Sign-up / Services ] [ Login ]

Current weather by "City, St" or "zip code"  
 

Advertise Here

Current Conditions: Houghton Lake, Roscommon County Airport, MI

Fair


44.0 F

Last Updated on Apr 20 2018, 8:53 pm EDT
Humidity: 27%
Wind Speed: NW 3.5 mph
Barometer 30.42 in
Dewpoint: 12.0 F
Visibility: 10.00 mi
Precip: --
Heat Index: NA
Wind Chill: NA
Current conditions at:

Houghton Lake, Roscommon County Airport, MI (KHTL)

Lat: 44.35 Lon: 84.674

Local Radar Image active severe weather and emergency alerts image image weather storm and storm spotter reports image weather observation monitoring service image
Local
Radar
Active
Alerts
Storm Reports Obs
Monitoring

iAlert Weather and Emergency Alert Notification Services:


ialert severe weather and emergency alerts by text message and email ialert daily weather forecast by email and text message service ialert real-time weather-observation monitoring and alert notification service ialert storm report monitoring alert notification

Observation History for Houghton Lake, Roscommon County Airport, MI


Time Wind
(mph)
Vis
(mi)
Weather Precip (in) Temperature (F) Relative
Humidity
Wind
Chill
(°F)
Heat
Index
(°F)
Pressure
Air Dwpt altimeter
(in)
sea level
(mb)
8:53 pm EDT NW 3.5 10.00 Fair -- 44.0 12.0 27% NA NA 30.42 1031.2
7:53 pm EDT N 5.8 10.00 Fair -- 49.0 12.9 23% 47 NA 30.42 1031.4
6:53 pm EDT N 5.8 10.00 Fair -- 53.0 15.1 22% 51 NA 30.43 1031.5
5:53 pm EDT N 6.9 10.00 Fair -- 54.0 15.1 21% 52 NA 30.43 1031.5
4:53 pm EDT 6.9 10.00 Fair -- 54.0 19.0 25% 52 NA 30.43 1031.6
3:53 pm EDT W 5.8 10.00 Fair -- 53.0 18.0 25% 51 NA 30.44 1031.9
2:53 pm EDT SW 8.1 10.00 Fair -- 51.0 17.1 26% 48 NA 30.45 1032.2
1:53 pm EDT SW 4.6 10.00 Fair -- 50.0 14.0 24% 48 NA 30.46 1032.6
12:53 pm EDT 5.8 10.00 Fair -- 50.0 15.1 25% 48 NA 30.47 1032.8
11:53 am EDT W 5.8 10.00 Fair -- 45.0 17.1 33% 42 NA 30.47 1033.1
10:53 am EDT W 6.9 10.00 Fair -- 40.0 21.9 49% 35 NA 30.47 1033.0
9:53 am EDT N 0.0 10.00 Fair -- 39.0 19.0 45% NA NA 30.46 1032.8
8:53 am EDT N 0.0 10.00 Fair -- 37.0 18.0 46% NA NA 30.46 1032.8
7:53 am EDT N 0.0 10.00 Fair -- 31.0 17.1 56% NA NA 30.45 1032.4
6:53 am EDT N 0.0 10.00 Fair -- 27.0 17.1 66% NA NA 30.42 1031.7
5:53 am EDT W 3.5 10.00 Fair -- 24.0 16.0 71% NA NA 30.40 1030.8
4:53 am EDT N 3.5 10.00 Fair -- 27.0 16.0 63% NA NA 30.38 1030.2
3:53 am EDT NW 6.9 10.00 Fair -- 27.0 15.1 61% 20 NA 30.38 1030.1
2:53 am EDT NW 5.8 10.00 Fair -- 30.0 15.1 54% 24 NA 30.37 1029.7
1:53 am EDT NW 6.9 10.00 Fair -- 31.0 15.1 52% 24 NA 30.37 1029.7
12:53 am EDT NW 5.8 10.00 Fair -- 31.0 16.0 54% 25 NA 30.36 1029.3
11:53 pm EDT NW 5.8 10.00 Fair -- 31.0 18.0 59% 25 NA 30.34 1028.8
10:53 pm EDT NW 8.1 10.00 Fair -- 34.0 19.0 54% 27 NA 30.34 1028.6

Regional Weather Observation


Houghton Lake, Roscommon County Airport, MI (KHTL)

Fair
44.0 F

Bellaire, Antrim County Airport, MI (KACB)

Fair
35.0 F

Wexford County Airport, MI (KCAD)

Fair
42.0 F

Cherry Capital Airport, MI (KTVC)

Partly Cloudy
42.0 F

Gaylord Regional Airport, MI (KGLR)

Fair
42.0 F

Charlevoix, Charlevoix Municipal Airport, MI (KCVX)

Fair
40.0 F

Advertise Here